Litchfield, MN

11:38 AM CDT on September 23, 2019 (GMT -0500)
Litchfield Municipal

Weather History for KLJF - August, 2019

Change the Weather History Date:

Sunday, August 25, 2019

  Actual Average Record
Temperature  
Mean Temperature 66 °F -  
Max Temperature 71 °F 80 °F 94 °F (1948)
Min Temperature 60 °F 58 °F 44 °F (1950)
Growing Degree Days 16 (Base 50)    
Moisture  
Dew Point 61 °F    
Average Humidity 87    
Maximum Humidity 100    
Minimum Humidity 68    
Precipitation  
Precipitation 0.00 in - - ()
Sea Level Pressure  
Sea Level Pressure 29.97 in    
Wind  
Wind Speed 8 mph ()    
Max Wind Speed 14 mph    
Max Gust Speed 18 mph    
Visibility 9.9 miles    
Events Rain    
Averages and records for this station are not official NWS values.
T = Trace of Precipitation, MM = Missing Value Source: Averaged Metar Reports

Daily Weather History Graph

Daily Weather History Graph

Search for Another Location

Airport or City:

Astronomy

Aug. 25, 2019 Rise Set
Actual Time 6:31 AM CDT 8:08 PM CDT
Civil Twilight 6:00 AM CDT 8:39 PM CDT
Nautical Twilight 5:22 AM CDT 9:16 PM CDT
Astronomical Twilight 4:41 AM CDT 9:56 PM CDT
Moon 12:58 AM CDT (8/25) 4:39 PM CDT (8/25)
Length of Visible Light 14h 38m
Length of Day
13h 36m
Waning Crescent, 29% of the Moon is Illuminated
Aug 25
Waning Crescent
Aug 30
New
Sep 5
First Quarter
Sep 13
Full
Sep 21
Last Quarter

Hourly Weather History & Observations

Time (CDT) Temp. Dew Point Humidity Pressure Visibility Wind Dir Wind Speed Gust Speed Precip Events Conditions
12:18 AM 64.4 °F 57.2 °F 77% 30.10 in 10.0 mi SE 5.8 mph - N/A   Mostly Cloudy
12:37 AM 62.6 °F 57.2 °F 82% 30.10 in 10.0 mi SE 8.1 mph - N/A   Mostly Cloudy
12:56 AM 64.4 °F 57.2 °F 77% 30.09 in 10.0 mi SE 8.1 mph - N/A   Mostly Cloudy
1:15 AM 64.4 °F 57.2 °F 77% 30.09 in 10.0 mi SE 5.8 mph - N/A   Overcast
1:16 AM 64.4 °F 57.2 °F 77% 30.09 in 10.0 mi SE 5.8 mph - N/A   Overcast
1:35 AM 62.6 °F 57.2 °F 82% 30.08 in 10.0 mi SE 6.9 mph - N/A   Scattered Clouds
1:39 AM 62.6 °F 57.2 °F 82% 30.08 in 10.0 mi SE 6.9 mph - N/A   Scattered Clouds
1:58 AM 62.6 °F 57.2 °F 82% 30.07 in 10.0 mi SE 6.9 mph - N/A   Clear
2:16 AM 62.6 °F 57.2 °F 82% 30.07 in 10.0 mi SE 8.1 mph - N/A   Clear
2:35 AM 62.6 °F 57.2 °F 82% 30.05 in 10.0 mi SE 9.2 mph - N/A   Clear
2:36 AM 62.6 °F 57.2 °F 82% 30.05 in 10.0 mi SE 9.2 mph - N/A   Clear
2:55 AM 62.6 °F 57.2 °F 82% 30.05 in 10.0 mi SE 9.2 mph - N/A   Clear
2:56 AM 62.6 °F 57.2 °F 82% 30.05 in 10.0 mi SE 9.2 mph - N/A   Clear
3:19 AM 62.6 °F 57.2 °F 82% 30.05 in 10.0 mi SE 8.1 mph - N/A   Clear
3:36 AM 62.6 °F 57.2 °F 82% 30.04 in 10.0 mi SE 9.2 mph 16.1 mph N/A   Clear
3:56 AM 62.6 °F 57.2 °F 82% 30.04 in 10.0 mi SE 8.1 mph - N/A   Clear
4:15 AM 62.6 °F 57.2 °F 82% 30.03 in 10.0 mi SE 5.8 mph - N/A   Clear
4:35 AM 62.6 °F 57.2 °F 82% 30.03 in 10.0 mi SE 6.9 mph - N/A   Clear
4:39 AM 62.6 °F 57.2 °F 82% 30.03 in 10.0 mi SE 5.8 mph - N/A   Clear
4:57 AM 62.6 °F 57.2 °F 82% 30.03 in 10.0 mi SE 6.9 mph - N/A   Clear
5:15 AM 62.6 °F 57.2 °F 82% 30.02 in 10.0 mi SE 6.9 mph - N/A   Clear
5:35 AM 62.6 °F 57.2 °F 82% 30.02 in 10.0 mi SE 6.9 mph - N/A   Clear
5:55 AM 60.8 °F 57.2 °F 88% 30.02 in 10.0 mi SE 6.9 mph - N/A   Clear
6:18 AM 62.6 °F 57.2 °F 82% 30.02 in 10.0 mi SE 8.1 mph - N/A   Clear
6:36 AM 60.8 °F 57.2 °F 88% 30.03 in 10.0 mi SE 8.1 mph - N/A   Clear
6:55 AM 60.8 °F 57.2 °F 88% 30.03 in 10.0 mi SE 6.9 mph - N/A   Scattered Clouds
6:56 AM 60.8 °F 57.2 °F 88% 30.03 in 10.0 mi SE 6.9 mph - N/A   Scattered Clouds
7:15 AM 60.8 °F 57.2 °F 88% 30.02 in 10.0 mi SE 6.9 mph - N/A   Scattered Clouds
7:16 AM 60.8 °F 57.2 °F 88% 30.02 in 10.0 mi SE 6.9 mph - N/A   Scattered Clouds
7:35 AM 60.8 °F 57.2 °F 88% 30.01 in 10.0 mi SE 9.2 mph - N/A   Clear
7:39 AM 60.8 °F 57.2 °F 88% 30.01 in 10.0 mi SE 9.2 mph - N/A   Clear
7:57 AM 62.6 °F 57.2 °F 82% 30.01 in 10.0 mi SE 10.4 mph - N/A   Clear
8:16 AM 62.6 °F 57.2 °F 82% 30.01 in 10.0 mi SE 6.9 mph - N/A   Clear
8:35 AM 62.6 °F 57.2 °F 82% 30.01 in 10.0 mi SE 9.2 mph - N/A   Clear
8:36 AM 62.6 °F 57.2 °F 82% 30.01 in 10.0 mi SE 9.2 mph - N/A   Clear
8:55 AM 64.4 °F 59.0 °F 83% 30.00 in 10.0 mi SE 8.1 mph - N/A   Clear
8:56 AM 64.4 °F 59.0 °F 83% 30.00 in 10.0 mi SE 8.1 mph - N/A   Clear
9:18 AM 64.4 °F 57.2 °F 77% 30.00 in 10.0 mi SE 10.4 mph - N/A   Scattered Clouds
9:37 AM 64.4 °F 59.0 °F 83% 30.01 in 10.0 mi SE 11.5 mph - N/A   Scattered Clouds
9:55 AM 64.4 °F 59.0 °F 83% 30.01 in 10.0 mi SE 11.5 mph - N/A   Scattered Clouds
9:56 AM 64.4 °F 59.0 °F 83% 30.01 in 10.0 mi SE 10.4 mph - N/A   Scattered Clouds
10:15 AM 64.4 °F 59.0 °F 83% 30.01 in 10.0 mi SE 12.7 mph 17.3 mph N/A   Scattered Clouds
10:16 AM 64.4 °F 59.0 °F 83% 30.01 in 10.0 mi SE 11.5 mph 17.3 mph N/A   Scattered Clouds
10:35 AM 66.2 °F 59.0 °F 78% 30.01 in 10.0 mi SE 11.5 mph - N/A   Scattered Clouds
10:39 AM 66.2 °F 59.0 °F 78% 30.00 in 10.0 mi SE 11.5 mph 16.1 mph N/A   Scattered Clouds
10:57 AM 68.0 °F 60.8 °F 78% 30.00 in 10.0 mi SSE 10.4 mph - N/A   Scattered Clouds
11:15 AM 69.8 °F 60.8 °F 73% 29.99 in 10.0 mi SSE 11.5 mph - N/A   Scattered Clouds
11:35 AM 71.6 °F 60.8 °F 69% 29.99 in 10.0 mi SE 10.4 mph 18.4 mph N/A   Scattered Clouds
11:36 AM 71.6 °F 60.8 °F 69% 29.99 in 10.0 mi SE 9.2 mph 18.4 mph N/A   Scattered Clouds
11:55 AM 71.6 °F 60.8 °F 69% 29.99 in 10.0 mi SE 12.7 mph 17.3 mph N/A   Scattered Clouds
11:56 AM 71.6 °F 60.8 °F 69% 29.98 in 10.0 mi SE 11.5 mph 17.3 mph N/A   Scattered Clouds
12:18 PM 69.8 °F 59.0 °F 68% 29.98 in 10.0 mi SE 13.8 mph 17.3 mph N/A   Scattered Clouds
12:36 PM 69.8 °F 60.8 °F 73% 29.98 in 10.0 mi SSE 6.9 mph - N/A   Mostly Cloudy
12:55 PM 71.6 °F 60.8 °F 69% 29.98 in 10.0 mi SE 11.5 mph 17.3 mph N/A   Mostly Cloudy
1:15 PM 69.8 °F 59.0 °F 68% 29.97 in 10.0 mi SE 8.1 mph - N/A   Mostly Cloudy
1:16 PM 69.8 °F 59.0 °F 68% 29.97 in 10.0 mi SE 6.9 mph - N/A   Mostly Cloudy
1:35 PM 69.8 °F 60.8 °F 73% 29.97 in 10.0 mi SE 6.9 mph - N/A   Mostly Cloudy
1:39 PM 69.8 °F 60.8 °F 73% 29.97 in 10.0 mi SE 8.1 mph - N/A Rain Light Rain
1:57 PM 66.2 °F 60.8 °F 83% 29.97 in 5.0 mi SSE 8.1 mph - N/A Rain Light Rain
2:16 PM 66.2 °F 60.8 °F 83% 29.97 in 10.0 mi SE 5.8 mph - N/A Rain Light Rain
2:36 PM 66.2 °F 62.6 °F 88% 29.96 in 10.0 mi SSE 4.6 mph - N/A Rain Light Rain
2:55 PM 68.0 °F 64.4 °F 88% 29.96 in 10.0 mi SE 5.8 mph - N/A   Light Drizzle
2:56 PM 68.0 °F 64.4 °F 88% 29.96 in 10.0 mi SE 5.8 mph - N/A   Light Drizzle
3:18 PM 68.0 °F 64.4 °F 88% 29.94 in 10.0 mi SE 5.8 mph - N/A Rain Light Rain
3:37 PM 68.0 °F 64.4 °F 88% 29.94 in 10.0 mi SE 8.1 mph - N/A   Scattered Clouds
3:56 PM 66.2 °F 66.2 °F 100% 29.93 in 7.0 mi SE 6.9 mph - N/A Rain Rain
4:15 PM 66.2 °F 66.2 °F 100% 29.93 in 10.0 mi SE 9.2 mph - N/A Rain Light Rain
4:16 PM 66.2 °F 66.2 °F 100% 29.93 in 10.0 mi SSE 8.1 mph - N/A Rain Light Rain
4:35 PM 66.2 °F 66.2 °F 100% 29.93 in 10.0 mi SE 9.2 mph - N/A   Scattered Clouds
4:39 PM 66.2 °F 66.2 °F 100% 29.92 in 10.0 mi SE 9.2 mph - N/A   Scattered Clouds
4:58 PM 68.0 °F 68.0 °F 100% 29.91 in 10.0 mi SE 10.4 mph 17.3 mph N/A   Scattered Clouds
5:15 PM 68.0 °F 68.0 °F 100% 29.91 in 10.0 mi SE 9.2 mph - N/A Rain Light Rain
5:35 PM 68.0 °F 68.0 °F 100% 29.91 in 10.0 mi SE 8.1 mph - N/A   Scattered Clouds
5:36 PM 68.0 °F 68.0 °F 100% 29.91 in 10.0 mi SE 6.9 mph - N/A   Scattered Clouds
5:55 PM 68.0 °F 66.2 °F 94% 29.92 in 10.0 mi SE 6.9 mph - N/A   Scattered Clouds
5:56 PM 68.0 °F 66.2 °F 94% 29.92 in 10.0 mi SSE 6.9 mph - N/A   Scattered Clouds
6:18 PM 68.0 °F 66.2 °F 94% 29.91 in 10.0 mi SE 9.2 mph - N/A   Scattered Clouds
6:37 PM 68.0 °F 66.2 °F 94% 29.90 in 10.0 mi SE 9.2 mph - N/A   Scattered Clouds
6:55 PM 68.0 °F 66.2 °F 94% 29.90 in 10.0 mi SE 10.4 mph - N/A   Scattered Clouds
7:15 PM 66.2 °F 66.2 °F 100% 29.89 in 10.0 mi ESE 8.1 mph - N/A   Scattered Clouds
7:16 PM 66.2 °F 66.2 °F 100% 29.89 in 10.0 mi ESE 8.1 mph - N/A   Scattered Clouds
7:35 PM 66.2 °F 66.2 °F 100% 29.89 in 10.0 mi ESE 9.2 mph - N/A   Scattered Clouds
7:40 PM 66.2 °F 66.2 °F 100% 29.89 in 10.0 mi ESE 11.5 mph - N/A   Scattered Clouds
7:57 PM 66.2 °F 66.2 °F 100% 29.88 in 10.0 mi ESE 9.2 mph - N/A   Mostly Cloudy
8:16 PM 66.2 °F 66.2 °F 100% 29.88 in 10.0 mi ESE 9.2 mph - N/A   Overcast
8:35 PM 66.2 °F 66.2 °F 100% 29.88 in 10.0 mi ESE 8.1 mph - N/A   Overcast
8:36 PM 66.2 °F 66.2 °F 100% 29.88 in 10.0 mi ESE 8.1 mph - N/A   Overcast
8:55 PM 66.2 °F 66.2 °F 100% 29.88 in 10.0 mi SE 8.1 mph - N/A   Overcast
8:56 PM 66.2 °F 66.2 °F 100% 29.89 in 10.0 mi SE 8.1 mph - N/A   Overcast
9:18 PM 66.2 °F 64.4 °F 94% 29.89 in 10.0 mi SE 6.9 mph - N/A   Mostly Cloudy
9:36 PM 66.2 °F 64.4 °F 94% 29.88 in 10.0 mi SE 8.1 mph - N/A   Mostly Cloudy
9:55 PM 66.2 °F 64.4 °F 94% 29.89 in 10.0 mi SE 5.8 mph - N/A   Overcast
9:56 PM 66.2 °F 64.4 °F 94% 29.89 in 10.0 mi SE 6.9 mph - N/A   Overcast
10:15 PM 66.2 °F 64.4 °F 94% 29.88 in 10.0 mi SE 6.9 mph - N/A   Overcast
10:16 PM 66.2 °F 64.4 °F 94% 29.88 in 10.0 mi SE 6.9 mph - N/A   Overcast
10:35 PM 66.2 °F 64.4 °F 94% 29.89 in 10.0 mi SSE 5.8 mph - N/A   Overcast
10:39 PM 66.2 °F 64.4 °F 94% 29.89 in 10.0 mi SE 6.9 mph - N/A   Overcast
10:58 PM 66.2 °F 64.4 °F 94% 29.88 in 10.0 mi SE 6.9 mph - N/A   Overcast
11:16 PM 66.2 °F 64.4 °F 94% 29.89 in 10.0 mi SE 5.8 mph - N/A   Overcast
11:35 PM 66.2 °F 64.4 °F 94% 29.87 in 10.0 mi SE 8.1 mph - N/A   Overcast
11:36 PM 66.2 °F 64.4 °F 94% 29.87 in 10.0 mi SE 8.1 mph - N/A   Overcast
11:55 PM 66.2 °F 62.6 °F 88% 29.86 in 10.0 mi SE 9.2 mph - N/A   Overcast
11:56 PM 66.2 °F 62.6 °F 88% 29.86 in 10.0 mi SE 8.1 mph - N/A   Overcast